Treviso / Sant'Angelo Airport

Jump to: basic info | weather | frequencies | runways | comments

Related pages: nearby airports | nearby navaids | notams | map

Basic information (top)

Codes: TSF LIPH
Location: lon 45.648399, lat 12.194400, elev 59 ft / 18 m msl
Status: large_airport
Scheduled airline service: yes
Links: Wikipedia Mobile

Weather (top)

Current conditions (rec'd 2014/07/28 05:45Z):

LIPH 280545Z /////KT 5000 BR BKN080 20/18 Q1011 RMK BKN VIS MIN 5000 WIND THR07 00000KT WHT

Airport forecast (rec'd 2014/07/28 06:24Z):

TAF TAF LIPH 280500Z 2806/2906 VRB01KT 5000 BR BKN080 
      BECMG 2808/2811 9999 SCT050 
      TEMPO 2814/2820 4000 TSRA FEW020CB BKN040

Frequencies (top)

Verify before use: may be inaccurate or out of date.

APP: 36.23 MHz (APP)
APP: 120.4 MHz (APP)
GND: 27.917 MHz (GND)
INFO: 124.15 MHz (PADOVA INFO)
TWR: 118.7 MHz (TWR)

Runways (top)

07/25: 7,941 x 144 ft (2,420 x 44 m) — paved — lighted — threshold 07 displaced 254 ft (77 m) — threshold 25 displaced 389 ft (119 m)

Latest comments (top)

Treviso-Venice Airport: Finally one quiet, dissent and ... [read]

More... (top)

See also NOTAMs and nearby airports and navaids, or visit the Treviso / Sant'Angelo Airport page at the main OurAirports website..